Location: *
(45.5224°N, 122.7471°W)
Time: 04:13:47
(UTC+00:00)

ARIANE 5 R/B - Pass Details

Date: 09 April 2020
Orbit: 749 x 795 km, 98.6° (Epoch: 24 May)

Event Time Altitude Azimuth Distance (km) Brightness Sun altitude
Rises 12:28:52 0° 1° (N) 3,298 6.1 -11.9°
Reaches altitude 10° 12:31:49 10° 344° (NNW) 2,369 5.1 -11.4°
Maximum altitude 12:35:21 19° 301° (WNW) 1,826 4.1 -10.8°
Enters shadow 12:38:16 12° 263° (W) 2,205 4.3 -10.3°
